COSMOS 2251 DEB, 37132

Orbit data source: Space-Track

COSMOS 2251 DEB, 37132 is space debris in LEO originally from a launch on Wed, 16 Jun 1993 UTC launched from the Plesetsk Missile And Space Complex (PKMTR). The debris from Iridium 33, an American commercial communications satellite, has been tracked extensively since its accidental collision with the defunct Russian satellite Cosmos 2251 in 2009. This event, occurring at high speed in low Earth orbit (LEO), generated thousands of pieces of space debris, significantly increasing the risk of further collisions. The Iridium 33 debris cloud has impacted space traffic management and orbital debris mitigation strategies, making it a subject of ongoing study in space situational awareness.

Loading next visibility...
Identifier
37132, 1993-036BHE
Orbit
LEO
Country
Flag of CISCIS
Related business
Manufacturer
Unknown
Mission
Spacecraft
Bus & Motor
Unknown
Mass
Unknown
Launch date (UTC)
1993-06-16 (33 years ago)
Launch vehicle
Unknown
Launch site
Plesetsk Missile And Space Complex (PKMTR)
Object type
Payload
Rocket body
Debris
Shape & HBR
Unknown shape, 0.1 m
Radar Cross Section
Small (<0.1 m²)

Expand to show TLE details & history
Last TLE update: 2 weeks ago

TLE from 2 weeks ago
0 COSMOS 2251 DEB
1 37132U 93036BHE 26107.37411596  .00003720  00000-0  48994-3 0  9998
2 37132  74.0029 346.4787 0040309 114.5706 245.9679 14.79951665642736
Epoch: 2026-04-17T08:58Z
TLE epoch observation values (Epoch: 2026-04-17T08:58:43.618Z)
Latitude
-0.00008°
Longitude
6.28871°
Altitude
643.739 km
Speed
7.53 km/s
True Right ascension
23h 05m 54s
True Declination
0° 00' 00"
Sunlit
Object was in daylight at epoch
Visualization orbit readout
Latitude
Unknown
Longitude
Unknown
Altitude
Unknown
Speed
Unknown
Apparent Right ascension
Unknown
Apparent Declination
Unknown
Sunlit
N/A
Visualization observer readout
Local Sidereal Time
22:59:02
Azimuth
Unknown
Elevation
Unknown
Doppler factor
Unknown
Orbital elements
Apogee altitude
655.292 km
Perigee altitude
598.818 km
Semi-major axis
7,005.192 km
Eccentricity
0.00403
Inclination
74.0029°
RAAN
346.4787°
Arg. of periapsis
114.5706°
True anomaly
245.5469°
Mean anomaly
245.9679°
Eccentric anomaly
245.75731°
Mean motion
3.7018 °/min
Orbital period
97.25 mins
BSTAR
0.00048994
Loading maneuver chart data...
Computing Atmospheric mass density...

Documentation

Showing up to 5 results
|